Escanaba, MI

5:32 AM EST on November 18, 2017 (GMT -0500)
Delta County

Weather History for KESC - October, 2014

Change the Weather History Date:

Saturday, October 18, 2014

  Actual Average Record
Temperature  
Mean Temperature 35 °F -  
Max Temperature 44 °F 52 °F 68 °F (1950)
Min Temperature 28 °F 37 °F 21 °F (1948)
Degree Days  
Heating Degree Days 30    
Moisture  
Dew Point 30 °F    
Average Humidity 70    
Maximum Humidity 93    
Minimum Humidity 53    
Precipitation  
Precipitation 0.00 in - - ()
Sea Level Pressure  
Sea Level Pressure 30.05 in    
Wind  
Wind Speed 11 mph (North)    
Max Wind Speed 18 mph    
Max Gust Speed 31 mph    
Visibility 10 miles    
Events      
Averages and records for this station are not official NWS values.
T = Trace of Precipitation, MM = Missing Value Source: NWS Daily Summary

Daily Weather History Graph

Daily Weather History Graph

Search for Another Location

Airport or City:

Trip Planner

Search our weather history database for the weather conditions in past years. The results will help you decide how hot, cold, wet, or windy it might be!

Date:

Astronomy

Oct. 18, 2014 Rise Set
Actual Time 8:08 AM EDT 6:57 PM EDT
Civil Twilight 7:38 AM EDT 7:27 PM EDT
Nautical Twilight 7:04 AM EDT 8:01 PM EDT
Astronomical Twilight 6:29 AM EDT 8:36 PM EDT
Moon 2:52 AM EDT 4:30 PM EDT
Length of Visible Light 11h 48m
Length of Day
10h 48m
Waning Crescent, 24% of the Moon is Illuminated
Oct 18
Waning Crescent
Oct 23
New
Oct 30
First Quarter
Nov 6
Full
Nov 14
Last Quarter

Hourly Weather History & Observations

Time (EDT) Temp. Windchill Dew Point Humidity Pressure Visibility Wind Dir Wind Speed Gust Speed Precip Events Conditions
12:15 AM 42.8 °F 36.6 °F 37.4 °F 81% 29.82 in 10.0 mi NNW 11.5 mph 20.7 mph N/A   Overcast
12:35 AM 42.8 °F 36.2 °F 35.6 °F 76% 29.82 in 10.0 mi NNW 12.7 mph 18.4 mph N/A   Overcast
12:55 AM 42.8 °F 36.6 °F 37.4 °F 81% 29.83 in 10.0 mi NNW 11.5 mph 24.2 mph N/A   Overcast
1:15 AM 42.8 °F 34.5 °F 35.6 °F 76% 29.84 in 10.0 mi NNW 18.4 mph 23.0 mph N/A   Overcast
1:35 AM 42.8 °F 36.6 °F 35.6 °F 76% 29.85 in 10.0 mi NNW 11.5 mph 23.0 mph N/A   Overcast
1:55 AM 42.8 °F 36.6 °F 33.8 °F 70% 29.86 in 10.0 mi NNW 11.5 mph 27.6 mph N/A   Overcast
2:15 AM 42.8 °F 35.8 °F 33.8 °F 70% 29.86 in 10.0 mi NNW 13.8 mph 23.0 mph N/A   Overcast
2:35 AM 41.0 °F 33.9 °F 35.6 °F 81% 29.87 in 10.0 mi NNW 12.7 mph 19.6 mph N/A   Overcast
2:55 AM 41.0 °F 33.5 °F 33.8 °F 76% 29.88 in 10.0 mi North 13.8 mph 21.9 mph N/A   Overcast
3:15 AM 41.0 °F 33.5 °F 33.8 °F 76% 29.88 in 10.0 mi North 13.8 mph 21.9 mph N/A   Overcast
3:35 AM 41.0 °F 33.1 °F 33.8 °F 76% 29.89 in 10.0 mi NNW 15.0 mph 19.6 mph N/A   Overcast
3:55 AM 41.0 °F 35.8 °F 33.8 °F 76% 29.90 in 10.0 mi NNW 8.1 mph 18.4 mph N/A   Overcast
4:15 AM 41.0 °F 34.3 °F 35.6 °F 81% 29.90 in 10.0 mi NNW 11.5 mph 21.9 mph N/A   Overcast
4:35 AM 39.2 °F 31.2 °F 33.8 °F 81% 29.91 in 8.0 mi NNW 13.8 mph 21.9 mph N/A   Overcast
4:55 AM 41.0 °F 33.5 °F 33.8 °F 76% 29.92 in 10.0 mi North 13.8 mph 26.5 mph N/A   Overcast
5:15 AM 41.0 °F 34.3 °F 33.8 °F 76% 29.93 in 10.0 mi North 11.5 mph 18.4 mph N/A   Overcast
5:35 AM 41.0 °F 34.3 °F 33.8 °F 76% 29.94 in 10.0 mi North 11.5 mph 24.2 mph N/A   Overcast
5:55 AM 41.0 °F 33.1 °F 33.8 °F 76% 29.94 in 10.0 mi North 15.0 mph 23.0 mph N/A   Overcast
6:15 AM 39.2 °F 32.0 °F 33.8 °F 81% 29.95 in 10.0 mi North 11.5 mph 18.4 mph N/A   Overcast
6:35 AM 39.2 °F 32.0 °F 33.8 °F 81% 29.96 in 10.0 mi North 11.5 mph 17.3 mph N/A   Overcast
6:55 AM 39.2 °F 31.6 °F 32.0 °F 75% 29.97 in 10.0 mi North 12.7 mph 23.0 mph N/A   Overcast
7:15 AM 39.2 °F 32.5 °F 30.2 °F 70% 29.98 in 10.0 mi North 10.4 mph 25.3 mph N/A   Overcast
7:35 AM 39.2 °F 31.6 °F 30.2 °F 70% 29.99 in 10.0 mi NNW 12.7 mph 19.6 mph N/A   Overcast
7:55 AM 39.2 °F 30.8 °F 30.2 °F 70% 30.00 in 10.0 mi NNW 15.0 mph 20.7 mph N/A   Overcast
8:15 AM 39.2 °F 30.8 °F 28.4 °F 65% 30.01 in 10.0 mi North 15.0 mph 26.5 mph N/A   Overcast
8:35 AM 37.4 °F 30.3 °F 30.2 °F 75% 30.02 in 10.0 mi North 10.4 mph 21.9 mph N/A   Overcast
8:55 AM 37.4 °F 29.8 °F 28.4 °F 70% 30.03 in 10.0 mi North 11.5 mph 21.9 mph N/A   Overcast
9:15 AM 39.2 °F 32.0 °F 28.4 °F 65% 30.03 in 10.0 mi North 11.5 mph 18.4 mph N/A   Overcast
9:35 AM 39.2 °F 30.8 °F 30.2 °F 70% 30.05 in 10.0 mi North 15.0 mph 21.9 mph N/A   Overcast
9:55 AM 37.4 °F 29.8 °F 30.2 °F 75% 30.06 in 10.0 mi North 11.5 mph 24.2 mph N/A   Overcast
10:15 AM 39.2 °F 32.5 °F 28.4 °F 65% 30.06 in 10.0 mi North 10.4 mph 25.3 mph N/A   Overcast
10:35 AM 39.2 °F 32.5 °F 28.4 °F 65% 30.07 in 10.0 mi North 10.4 mph 26.5 mph N/A   Overcast
10:55 AM 39.2 °F 30.2 °F 26.6 °F 61% 30.07 in 10.0 mi North 17.3 mph 31.1 mph N/A   Mostly Cloudy
11:15 AM 41.0 °F 33.1 °F 28.4 °F 61% 30.08 in 10.0 mi North 15.0 mph 26.5 mph N/A   Mostly Cloudy
11:35 AM 42.8 °F 36.2 °F 28.4 °F 57% 30.09 in 10.0 mi North 12.7 mph 25.3 mph N/A   Mostly Cloudy
11:55 AM 42.8 °F 34.8 °F 28.4 °F 57% 30.09 in 10.0 mi North 17.3 mph 27.6 mph N/A   Mostly Cloudy
12:15 PM 42.8 °F 34.8 °F 28.4 °F 57% 30.10 in 10.0 mi North 17.3 mph 28.8 mph N/A   Mostly Cloudy
12:35 PM 42.8 °F 34.8 °F 30.2 °F 61% 30.10 in 10.0 mi NNW 17.3 mph 24.2 mph N/A   Mostly Cloudy
12:55 PM 42.8 °F 35.1 °F 30.2 °F 61% 30.11 in 10.0 mi NNW 16.1 mph 20.7 mph N/A   Overcast
1:15 PM 42.8 °F 35.8 °F 28.4 °F 57% 30.11 in 10.0 mi NNE 13.8 mph 24.2 mph N/A   Overcast
1:35 PM 42.8 °F 36.6 °F 28.4 °F 57% 30.12 in 10.0 mi North 11.5 mph 25.3 mph N/A   Mostly Cloudy
1:55 PM 42.8 °F 35.4 °F 28.4 °F 57% 30.12 in 10.0 mi NNW 15.0 mph 21.9 mph N/A   Mostly Cloudy
2:15 PM 42.8 °F 34.8 °F 30.2 °F 61% 30.12 in 10.0 mi NNW 17.3 mph 25.3 mph N/A   Mostly Cloudy
2:35 PM 42.8 °F 36.2 °F 28.4 °F 57% 30.12 in 10.0 mi NNW 12.7 mph 24.2 mph N/A   Scattered Clouds
2:55 PM 42.8 °F 36.2 °F 28.4 °F 57% 30.12 in 10.0 mi NNW 12.7 mph 23.0 mph N/A   Partly Cloudy
3:15 PM 42.8 °F 36.6 °F 26.6 °F 53% 30.13 in 10.0 mi NNW 11.5 mph 21.9 mph N/A   Partly Cloudy
3:35 PM 42.8 °F 35.8 °F 26.6 °F 53% 30.13 in 10.0 mi NNW 13.8 mph 23.0 mph N/A   Clear
3:55 PM 42.8 °F 37.5 °F 28.4 °F 57% 30.13 in 10.0 mi North 9.2 mph 18.4 mph N/A   Scattered Clouds
4:15 PM 42.8 °F 35.4 °F 28.4 °F 57% 30.14 in 10.0 mi North 15.0 mph 21.9 mph N/A   Scattered Clouds
4:35 PM 42.8 °F 36.2 °F 28.4 °F 57% 30.14 in 10.0 mi North 12.7 mph 19.6 mph N/A   Partly Cloudy
4:55 PM 42.8 °F 37.0 °F 28.4 °F 57% 30.14 in 10.0 mi North 10.4 mph 16.1 mph N/A   Clear
5:15 PM 42.8 °F 37.0 °F 28.4 °F 57% 30.14 in 10.0 mi North 10.4 mph - N/A   Clear
5:35 PM 42.8 °F 38.0 °F 28.4 °F 57% 30.15 in 10.0 mi North 8.1 mph - N/A   Clear
5:55 PM 41.0 °F 35.2 °F 28.4 °F 61% 30.15 in 10.0 mi North 9.2 mph - N/A   Clear
6:15 PM 41.0 °F 35.2 °F 28.4 °F 61% 30.16 in 10.0 mi NNE 9.2 mph - N/A   Clear
6:35 PM 39.2 °F 33.6 °F 28.4 °F 65% 30.16 in 10.0 mi North 8.1 mph - N/A   Clear
6:55 PM 39.2 °F 33.6 °F 26.6 °F 61% 30.16 in 10.0 mi North 8.1 mph - N/A   Clear
7:15 PM 37.4 °F 31.4 °F 26.6 °F 65% 30.16 in 10.0 mi NNE 8.1 mph - N/A   Clear
7:35 PM 37.4 °F 32.8 °F 28.4 °F 70% 30.17 in 10.0 mi NNE 5.8 mph - N/A   Clear
7:55 PM 37.4 °F 32.8 °F 28.4 °F 70% 30.17 in 10.0 mi NNE 5.8 mph - N/A   Clear
8:15 PM 35.6 °F 32.8 °F 28.4 °F 75% 30.18 in 10.0 mi North 3.5 mph - N/A   Clear
8:35 PM 35.6 °F - 28.4 °F 75% 30.18 in 10.0 mi Calm Calm - N/A   Clear
8:55 PM 35.6 °F - 28.4 °F 75% 30.18 in 10.0 mi Calm Calm - N/A   Clear
9:15 PM 33.8 °F - 28.4 °F 81% 30.18 in 10.0 mi Calm Calm - N/A   Clear
9:35 PM 33.8 °F - 28.4 °F 81% 30.18 in 10.0 mi Calm Calm - N/A   Clear
9:55 PM 30.2 °F - 26.6 °F 86% 30.18 in 10.0 mi Calm Calm - N/A   Clear
10:15 PM 30.2 °F - 26.6 °F 86% 30.17 in 10.0 mi Calm Calm - N/A   Clear
10:35 PM 28.4 °F - 26.6 °F 93% 30.17 in 10.0 mi Calm Calm - N/A   Clear
10:55 PM 28.4 °F - 26.6 °F 93% 30.16 in 10.0 mi Calm Calm - N/A   Clear
11:15 PM 28.4 °F - 26.6 °F 93% 30.17 in 10.0 mi Calm Calm - N/A   Clear
11:35 PM 28.4 °F - 26.6 °F 93% 30.17 in 10.0 mi Calm Calm - N/A   Clear
11:55 PM 30.2 °F - 26.6 °F 86% 30.16 in 10.0 mi Calm Calm - N/A   Clear